Wind_Speed
24 22 20 19 14 10 10 11 10 10 10 10 9 7 6 4 2 3 4 5 7 9 8 9 10 11 11 11 12 13 14 14 14 15 15 16 17 18 19 18 17 18 18 18 18 18 18 19 20 19 18 18 18 18 19 19 21 22 24 25 24 23 25 27 31 37 39 37 38 39 37 35 34 33 34 34 31 29 30 29 28 29 30 31 31
25 23 21 19 15 11 12 12 12 11 10 9 8 7 5 3 1 2 4 7 10 10 10 11 12 11 10 10 12 13 13 13 14 15 16 18 19 20 20 20 19 19 20 20 19 19 19 20 21 21 20 20 20 20 21 20 21 23 24 24 23 22 24 28 32 37 41 41 40 40 39 36 34 32 32 33 32 29 29 28 27 28 30 31 32
26 24 22 19 15 12 13 14 13 12 10 9 7 6 5 3 3 5 6 8 12 12 12 13 13 11 11 12 13 13 12 13 15 17 18 20 20 21 21 20 20 20 21 22 21 20 21 22 23 24 23 23 21 21 21 20 21 23 24 24 23 23 25 29 33 37 41 42 42 41 40 39 37 34 30 32 32 30 30 29 28 28 28 30 33
27 24 22 19 15 14 14 14 14 13 10 8 7 6 5 4 6 7 6 7 10 11 12 14 14 14 14 14 13 13 13 14 16 17 18 19 20 22 23 21 19 20 21 21 21 21 22 24 25 26 26 25 23 22 22 21 22 24 25 25 24 25 28 30 33 36 39 42 43 42 40 39 38 36 32 31 32 32 31 31 30 30 28 28 32
28 26 21 17 15 15 15 14 14 13 11 10 9 7 5 7 8 7 6 7 9 10 12 15 16 16 14 13 13 13 13 15 16 17 18 20 20 21 21 18 16 17 19 19 19 19 22 25 27 27 27 25 24 25 24 23 23 24 26 25 25 27 29 31 33 36 38 41 44 43 41 38 37 36 33 30 31 31 31 31 31 32 30 29 30
29 25 20 17 16 16 16 16 14 11 10 10 10 8 8 10 11 9 8 9 11 12 15 17 16 14 12 12 12 13 14 15 16 17 18 19 19 19 16 14 14 16 17 17 17 18 21 24 26 27 27 27 28 29 28 25 22 24 25 25 25 27 30 32 34 36 38 40 42 42 41 39 38 36 33 29 29 30 29 30 32 33 33 33 32
29 24 19 18 17 17 17 17 14 10 9 10 10 9 10 11 9 7 9 11 12 13 14 15 14 12 13 14 15 15 16 15 15 15 16 17 17 17 14 13 14 15 16 17 17 18 20 22 25 26 27 30 31 31 29 25 21 22 24 24 25 27 30 32 34 36 38 39 40 41 40 40 39 38 34 30 29 29 27 29 32 35 35 35 34
29 24 20 19 18 18 18 17 15 10 8 10 11 10 10 10 7 6 8 11 12 12 12 13 12 12 15 17 16 13 12 13 14 15 16 16 16 15 14 13 15 17 18 18 18 19 20 21 23 25 27 30 30 28 28 25 22 22 23 23 24 27 29 32 34 36 37 39 40 41 41 41 40 39 36 33 31 30 27 27 31 35 36 36 36
29 24 23 21 19 19 19 19 17 12 9 11 12 11 12 10 8 7 8 9 10 11 12 14 14 13 16 17 14 11 12 14 16 16 16 16 15 14 15 15 17 20 21 21 21 20 20 20 21 22 26 29 29 29 30 29 25 24 25 24 24 26 28 31 34 36 38 40 41 41 41 42 40 40 39 36 33 33 30 29 31 32 33 36 37
28 25 25 22 20 19 21 21 18 14 12 11 11 11 11 10 8 9 9 10 11 12 14 15 15 14 15 15 14 14 16 15 15 16 16 16 15 15 16 18 19 21 21 23 23 21 19 19 20 21 22 24 25 26 25 24 23 24 26 25 24 25 27 30 33 36 38 39 40 40 42 43 41 40 41 39 36 35 33 32 32 31 31 34 38
28 27 27 23 19 20 22 22 19 15 14 12 13 13 11 10 10 11 11 12 12 14 15 16 16 14 13 14 15 15 15 14 14 15 16 17 18 18 18 19 20 21 22 23 23 22 21 20 20 21 21 22 21 20 18 16 16 19 22 22 24 25 26 29 33 35 37 38 39 40 42 43 42 41 41 41 39 37 35 32 32 32 30 32 37
28 29 27 22 21 22 23 23 20 17 14 13 14 14 12 12 12 12 13 13 13 14 16 17 16 15 14 15 15 15 15 14 15 16 18 19 21 20 19 20 22 23 24 24 23 23 21 20 20 21 21 20 19 19 18 16 15 17 20 20 23 24 24 28 32 34 35 37 38 40 42 43 44 42 41 42 41 40 37 33 31 32 32 31 34
28 29 24 21 24 26 24 23 21 18 16 15 15 14 13 13 13 13 13 13 14 15 16 18 18 17 16 16 16 17 16 15 15 18 20 21 21 20 20 22 23 24 24 23 22 22 21 20 19 20 19 18 17 16 16 16 16 19 20 21 22 23 24 28 32 33 34 36 38 41 41 42 44 43 41 41 41 42 40 36 33 32 32 31 33
29 27 23 22 27 29 25 23 22 19 18 17 17 16 16 16 14 13 13 14 16 17 18 19 19 17 17 17 17 17 17 16 17 19 20 20 20 20 20 22 23 23 23 22 20 21 22 19 18 19 19 17 15 13 13 15 18 20 21 21 22 23 26 30 33 35 36 36 38 41 41 41 42 43 41 39 40 42 42 39 36 33 31 29 29
28 26 23 24 28 29 26 23 22 21 20 19 19 19 19 19 17 15 14 15 16 17 19 21 20 19 18 18 18 19 18 17 18 19 19 19 19 19 20 23 23 22 21 19 19 20 21 18 16 18 19 16 14 13 14 16 19 20 21 22 22 25 28 30 33 36 37 37 38 40 41 40 41 41 40 39 39 42 43 41 38 36 33 30 29
28 25 25 26 28 27 25 23 23 22 21 21 21 21 22 21 19 17 16 16 16 16 18 19 19 19 19 19 19 18 15 15 17 18 17 16 17 18 20 22 22 20 19 18 19 19 19 17 16 17 18 16 15 16 17 18 20 22 22 22 23 26 28 30 34 38 39 38 37 38 39 40 40 39 37 35 37 40 40 40 39 37 35 33 33
27 25 26 27 25 24 24 24 25 23 22 22 22 22 22 22 20 18 17 18 17 17 18 17 16 16 17 18 17 13 12 14 15 13 12 12 14 16 18 19 19 20 19 19 19 19 18 17 16 16 17 17 18 19 19 20 22 22 21 21 23 26 29 32 36 41 42 39 37 37 39 40 40 38 33 30 35 38 40 41 40 37 35 34 35
28 27 27 25 22 22 25 26 26 24 23 23 23 21 21 22 20 18 19 19 18 18 18 15 13 14 16 16 16 17 18 17 13 9 10 13 15 15 15 16 18 19 20 20 20 19 18 16 14 15 17 19 20 20 21 22 22 21 19 21 23 26 29 33 38 44 45 41 37 38 41 42 42 39 31 25 30 35 41 46 43 39 38 36 33
30 27 27 25 21 22 25 27 26 24 23 23 23 21 21 21 20 20 20 20 20 20 18 14 13 15 17 18 20 22 21 19 15 13 14 17 18 17 17 17 18 19 21 21 21 19 18 14 12 14 18 20 21 22 22 22 20 19 18 20 23 24 27 32 38 45 47 43 41 42 44 45 44 42 33 20 20 25 33 42 44 42 42 38 33
30 26 28 25 21 22 24 25 25 25 23 23 22 21 20 20 19 18 17 16 17 17 15 14 15 16 17 18 20 21 21 21 21 20 20 20 20 20 20 18 16 18 21 22 22 20 18 14 14 16 19 20 21 22 22 21 20 19 19 20 21 22 26 31 36 41 45 45 44 45 47 47 47 45 36 20 11 15 23 35 42 44 43 39 34
28 27 28 24 19 19 22 23 24 23 22 22 22 22 21 20 17 14 11 9 9 9 10 12 15 17 18 19 19 19 20 20 21 21 21 20 19 19 19 16 16 19 22 22 22 20 17 15 16 17 19 20 21 21 21 21 21 19 19 22 22 20 23 29 34 37 42 44 45 46 47 48 49 48 39 24 12 10 15 27 37 43 44 41 35
28 28 26 19 15 16 18 21 23 23 23 23 24 22 20 18 16 14 11 12 12 12 13 15 16 18 20 20 21 20 19 18 17 17 16 16 17 17 16 14 16 20 22 22 21 19 15 13 14 17 18 20 21 20 21 22 22 20 21 24 22 19 21 27 31 34 39 43 45 47 48 49 49 50 43 27 13 8 11 20 30 38 43 43 37
25 24 21 16 14 16 19 22 25 25 24 24 25 24 20 17 17 16 15 17 18 17 16 16 16 18 20 21 21 20 19 17 14 13 13 15 17 15 13 13 17 20 20 21 20 17 13 11 13 16 18 19 20 19 19 21 22 22 22 23 22 19 20 24 28 31 36 40 43 46 48 48 48 49 46 34 18 8 9 15 23 31 39 42 38
25 22 18 14 13 14 17 21 24 24 23 21 22 24 21 19 18 16 15 17 17 15 14 15 16 18 19 20 20 19 17 15 14 14 15 15 16 13 12 15 18 18 18 18 17 16 15 13 13 15 17 18 18 18 19 21 22 21 21 20 19 18 19 21 25 28 33 36 41 45 47 48 48 47 48 43 26 9 7 12 16 25 35 40 37
22 19 15 11 9 10 11 14 18 21 21 19 19 20 18 15 14 14 13 13 12 12 14 16 17 18 20 21 21 19 16 14 16 17 16 15 14 12 13 15 16 16 16 16 15 15 15 14 13 15 16 16 17 18 19 20 19 18 17 16 15 15 17 20 22 25 29 33 37 41 44 48 49 46 48 47 33 11 3 9 12 17 27 35 35
19 14 9 9 12 12 11 11 14 16 17 17 15 15 14 11 11 10 10 10 12 13 15 16 18 19 20 21 21 18 15 16 17 17 15 13 12 12 13 14 14 14 14 13 13 14 13 12 13 13 13 15 18 20 19 16 15 14 13 12 13 14 17 20 21 22 25 29 33 37 41 45 48 47 48 51 45 29 11 7 14 16 21 30 34
10 7 10 12 13 13 12 13 13 13 12 12 11 10 9 8 9 11 11 12 14 15 15 16 18 19 20 20 20 18 16 16 16 13 12 11 11 13 14 13 13 12 11 11 12 10 9 9 10 11 12 17 20 19 15 11 11 10 10 10 12 15 17 19 20 21 22 24 27 32 36 41 46 48 48 51 52 46 31 13 7 17 23 28 31
6 8 10 12 13 13 14 14 13 12 11 10 9 8 8 9 11 12 13 14 15 16 17 18 20 20 21 22 21 18 16 15 13 11 11 12 13 14 13 12 12 11 10 10 10 7 6 8 9 10 13 16 16 13 9 8 8 9 10 11 13 16 19 21 23 23 22 21 23 28 32 37 43 47 48 48 49 49 45 36 23 7 16 25 28
7 8 11 14 15 15 15 13 12 11 12 11 10 10 11 12 12 13 14 16 17 18 20 20 21 21 22 22 20 18 16 14 12 12 12 12 12 12 11 11 11 10 8 9 9 7 7 8 9 10 11 11 10 8 7 7 7 9 11 13 15 18 20 23 25 25 22 21 22 25 27 31 38 44 46 46 46 46 46 45 42 30 14 10 14
6 7 10 14 15 14 15 15 14 13 13 12 12 13 13 13 14 15 16 17 18 20 21 21 21 21 20 18 17 15 14 13 13 12 12 11 10 9 9 10 10 9 7 6 6 7 8 7 6 7 8 7 7 6 7 8 10 11 13 14 16 18 20 22 23 23 24 25 23 21 23 26 30 36 41 44 44 44 43 43 43 42 35 23 15
5 5 8 12 14 15 15 14 12 11 11 11 11 13 14 15 15 15 16 17 18 19 20 19 19 18 15 13 12 12 11 12 12 11 10 8 7 7 8 9 9 8 6 4 6 8 8 6 5 6 6 5 5 7 8 10 12 13 14 14 15 16 17 20 22 23 25 25 24 22 23 23 24 27 32 38 41 42 42 42 40 41 42 39 33
2 4 9 12 13 13 13 13 14 13 11 11 12 13 14 16 16 16 16 17 18 18 18 17 16 15 11 9 9 9 10 10 9 8 7 6 5 5 7 7 7 6 4 5 7 8 7 5 5 5 5 5 5 7 10 11 12 13 13 13 13 14 16 18 20 22 24 24 24 25 24 23 23 24 25 29 35 37 39 40 40 38 39 41 41
1 5 9 12 13 12 12 14 16 15 13 13 13 13 13 14 15 16 17 17 17 16 16 14 13 11 8 7 6 6 5 5 4 3 2 2 2 3 4 6 7 5 3 4 5 6 5 5 5 5 5 6 6 7 9 9 10 10 10 11 12 14 15 17 18 20 21 22 23 24 23 22 23 23 22 23 27 29 32 36 38 37 37 38 40
2 6 11 13 13 13 14 15 16 15 14 13 14 15 15 15 16 17 17 16 15 15 14 12 10 8 6 5 5 5 4 2 1 2 3 3 1 2 2 4 6 6 5 5 5 5 4 5 5 5 5 6 5 6 7 7 8 8 8 10 11 13 14 15 17 18 20 21 22 22 22 22 23 23 23 22 22 23 25 28 32 34 35 36 36
4 9 14 15 14 15 16 15 16 16 16 16 17 18 18 17 17 17 16 14 14 13 12 11 9 7 6 5 4 3 2 2 4 5 7 5 1 3 4 5 6 6 6 5 4 3 3 4 4 4 4 4 5 5 6 6 7 7 8 9 10 12 13 14 16 17 19 20 21 21 20 20 21 22 23 23 23 23 23 23 24 27 31 33 34
7 13 17 18 18 19 19 17 17 16 16 17 18 18 17 18 19 18 16 14 13 13 12 11 9 7 8 7 5 3 1 3 5 6 6 4 1 4 6 7 6 5 4 2 1 1 1 2 2 2 3 3 4 4 5 6 6 7 8 9 9 11 12 13 15 17 18 19 20 20 19 19 20 21 21 22 23 23 23 22 21 21 23 27 29
11 15 17 18 18 19 19 19 19 18 16 17 17 16 16 18 19 18 15 14 13 12 11 10 9 9 9 9 8 5 2 2 3 4 6 4 0 2 5 6 5 4 3 3 2 2 2 1 2 3 4 4 5 5 6 6 7 7 8 10 10 12 13 14 15 15 16 17 18 18 18 18 19 20 21 21 22 23 22 22 20 18 19 20 22
14 15 17 18 18 17 17 18 19 18 17 17 16 15 16 17 17 15 12 12 12 10 8 7 8 9 10 10 10 10 8 4 1 2 4 4 3 2 3 3 2 2 4 5 4 3 3 3 4 5 6 6 7 7 8 9 10 11 11 11 12 12 13 13 13 14 14 14 15 15 16 17 17 19 19 19 21 22 21 22 21 19 18 19 19
14 16 17 18 17 16 15 16 18 18 18 17 15 14 15 14 13 11 11 11 11 8 6 7 9 10 10 11 12 13 11 6 4 5 5 4 3 4 4 2 2 5 5 4 4 4 4 4 5 6 6 6 7 9 10 11 12 12 12 12 12 12 11 11 11 12 12 12 12 13 15 16 16 17 17 17 18 20 20 21 21 20 19 19 19
15 17 18 18 17 15 14 14 15 16 16 15 13 13 13 12 11 10 11 11 9 9 11 12 13 12 13 13 12 10 7 5 5 5 7 6 6 6 5 3 3 5 5 4 4 4 4 4 5 6 6 7 9 11 12 12 12 11 11 10 10 10 9 9 10 11 11 11 10 11 13 16 16 15 15 15 16 17 18 19 19 19 19 18 17
15 16 16 17 17 16 14 13 13 14 14 14 13 13 13 13 12 12 13 11 10 12 14 16 16 16 16 15 12 8 6 8 8 8 9 9 8 8 6 4 4 5 5 5 5 4 3 3 5 8 9 9 11 12 13 12 10 8 8 8 8 9 9 9 11 11 10 10 10 10 13 16 17 15 15 16 15 15 16 17 17 18 18 17 16
13 14 14 14 15 15 15 14 13 13 15 15 15 15 14 14 13 13 14 13 12 12 14 17 18 17 16 16 14 11 9 11 12 11 11 11 9 7 4 1 2 3 4 4 4 4 4 4 7 9 10 11 12 11 10 8 7 6 7 7 8 9 9 10 11 11 9 9 11 12 13 16 17 16 16 16 16 16 17 18 18 17 17 17 16
11 11 11 12 14 15 15 14 14 14 16 16 15 14 14 13 13 14 16 16 15 13 13 15 17 16 16 17 15 13 10 12 14 13 11 9 7 4 1 3 4 4 4 3 3 4 4 6 8 9 10 10 10 8 6 6 6 6 7 7 9 9 9 10 11 11 10 10 11 12 14 16 17 16 16 17 17 18 19 20 20 19 18 17 16
10 9 9 10 12 14 16 16 16 15 15 14 13 13 14 14 14 15 17 17 16 15 15 15 15 15 15 16 15 12 10 10 13 12 11 10 7 4 1 2 3 2 4 4 6 6 6 7 8 8 7 7 6 5 5 4 5 6 7 7 9 9 9 10 11 11 11 11 11 12 13 16 16 16 16 16 17 18 20 22 22 22 20 19 18
9 10 10 10 11 13 16 17 16 15 14 13 13 14 15 15 15 15 16 15 14 14 14 13 14 15 15 15 13 11 8 7 6 6 6 8 9 6 1 2 3 4 5 7 9 10 8 7 6 5 5 4 4 5 5 4 5 6 7 7 8 9 10 11 11 11 11 12 11 11 12 14 15 16 15 15 16 18 19 21 22 23 22 21 20
10 9 10 9 9 10 12 13 12 12 12 12 12 13 14 13 13 13 13 11 10 11 13 14 15 15 14 12 10 7 5 2 2 4 3 2 7 7 2 4 7 8 8 10 12 11 7 4 4 3 3 2 3 4 4 4 4 5 6 7 8 9 9 10 11 11 11 12 11 10 10 12 13 14 14 14 14 15 17 19 20 21 21 21 21
6 6 7 7 7 8 9 9 10 11 11 10 9 10 10 10 10 11 12 12 13 14 15 15 15 14 12 10 7 3 1 1 2 3 3 3 5 6 5 7 9 10 11 12 13 10 5 2 1 2 2 1 2 3 3 4 4 5 5 6 7 8 8 9 10 10 10 11 11 11 10 10 11 12 12 12 12 13 14 16 17 19 20 20 20
3 4 6 7 8 9 10 9 10 10 10 9 9 10 11 11 12 12 12 13 16 17 18 17 15 14 13 11 7 2 1 0 0 2 3 4 6 8 8 9 10 12 12 10 8 6 4 2 2 2 3 1 1 1 2 4 4 4 5 5 5 6 7 7 8 9 9 10 11 10 10 10 11 11 11 11 12 12 12 13 15 16 17 18 19
4 4 7 9 10 11 12 12 12 12 11 11 11 12 12 13 14 15 16 16 16 16 16 15 14 13 13 12 9 5 5 4 3 4 6 9 11 11 10 11 12 14 14 11 7 5 3 2 2 4 5 3 2 2 3 4 4 4 5 5 5 5 5 5 6 7 8 8 9 10 10 10 12 11 10 10 10 10 10 11 12 14 15 16 17
8 7 7 10 12 14 14 13 13 14 15 15 13 13 13 14 15 16 16 16 15 14 12 12 11 12 12 12 11 10 9 9 8 8 8 11 12 12 13 13 12 12 13 11 8 5 4 4 5 7 8 7 6 5 5 5 5 6 6 5 5 5 5 5 5 6 6 6 7 8 9 10 11 11 11 11 10 9 9 10 11 12 13 14 15
13 11 9 11 13 15 15 16 16 16 16 15 14 13 14 15 16 16 14 13 12 12 13 12 13 14 13 11 8 9 9 9 9 9 11 13 14 15 15 12 9 10 12 10 6 4 4 5 7 9 11 10 9 8 7 8 8 8 7 6 5 5 5 5 5 5 5 6 7 7 7 8 9 10 11 12 11 9 9 10 10 10 11 13 14
Wind_Direction
203 201 199 201 204 207 218 227 232 234 227 224 229 232 231 220 224 272 291 297 300 294 287 293 303 301 291 288 294 299 300 300 301 303 303 302 302 299 296 298 300 298 294 293 295 296 296 299 306 310 310 310 307 306 313 323 333 343 347 349 354 356 349 343 335 328 328 328 323 319 318 312 298 286 286 290 285 281 284 274 261 260 258 252 252
202 200 200 202 204 207 219 227 229 230 224 220 224 227 224 202 214 305 314 305 305 305 299 303 311 309 296 290 298 305 305 308 313 312 310 310 310 307 302 297 297 297 294 293 293 291 291 297 302 304 305 306 304 303 307 317 329 338 343 345 348 352 350 346 341 335 331 331 328 322 320 318 307 292 283 285 285 282 284 277 264 263 261 253 250
202 201 202 204 204 207 219 227 227 225 222 220 225 229 225 224 260 282 296 296 298 303 304 305 306 300 293 294 302 310 311 312 315 313 311 310 311 311 307 298 293 295 296 294 290 289 293 296 299 301 302 301 300 301 305 313 325 332 336 340 340 342 345 345 342 337 332 331 330 325 322 320 314 302 286 279 280 280 280 276 267 264 263 255 249
203 201 201 202 205 211 219 225 226 226 225 221 224 230 236 256 266 267 276 285 288 293 295 294 294 293 293 297 304 310 311 311 311 309 308 307 306 308 305 297 289 291 296 296 290 289 293 297 299 300 298 297 298 300 304 309 319 327 330 331 332 335 341 343 341 338 332 329 329 327 323 321 316 310 297 282 278 278 276 273 268 262 261 257 250
205 201 199 201 209 215 218 221 225 227 225 222 228 235 241 247 249 252 265 279 284 286 286 288 292 297 302 305 306 308 310 308 304 301 301 301 304 307 307 301 293 295 299 300 293 289 292 296 300 299 296 295 298 300 302 305 314 324 326 326 329 334 340 342 341 338 333 329 328 326 322 320 317 311 303 290 283 280 274 270 267 262 259 258 253
207 200 199 208 214 217 219 220 223 226 222 217 222 228 234 238 239 245 259 272 279 281 282 285 289 295 303 302 299 301 301 298 295 295 298 301 303 307 311 307 301 300 300 298 296 293 294 299 304 303 301 300 300 300 299 300 310 322 324 324 329 334 338 340 339 337 334 330 329 327 322 321 318 312 304 293 286 283 279 274 269 263 260 259 257
206 200 203 212 218 221 222 223 225 230 223 214 216 223 231 241 245 248 256 261 267 272 276 280 282 286 292 291 290 293 294 289 289 294 301 305 302 302 311 311 304 303 301 298 300 299 300 305 308 308 308 304 299 295 292 292 303 318 323 325 329 331 333 337 337 335 333 331 330 329 325 321 317 313 307 296 284 280 281 279 273 266 260 257 257
202 200 204 214 222 224 224 227 229 233 229 221 225 235 242 253 262 263 259 260 266 275 284 289 288 281 282 287 291 296 296 292 294 301 308 309 303 302 310 311 308 308 307 305 306 307 309 315 316 314 308 300 294 292 290 288 292 306 317 320 321 324 329 333 334 333 331 328 327 327 325 320 315 312 309 302 291 282 279 280 278 273 265 258 256
199 201 207 216 223 222 223 228 227 230 237 229 228 239 247 257 269 272 270 271 277 286 291 296 294 282 281 289 296 296 293 293 297 305 311 312 308 305 308 309 311 313 313 313 314 315 317 322 325 320 308 300 301 303 299 292 290 298 310 312 310 315 324 329 330 331 329 325 323 323 321 317 315 313 309 304 297 288 280 278 280 279 272 262 256
198 203 209 216 220 218 223 227 223 228 244 241 236 242 247 257 270 275 277 279 282 284 287 291 293 289 287 293 298 291 285 286 293 302 308 310 309 308 308 308 309 311 312 313 315 315 315 317 321 321 314 310 312 312 306 299 293 295 304 307 305 310 320 326 328 330 327 321 319 320 317 314 313 312 308 303 298 291 283 278 277 278 276 264 256
199 205 210 214 216 216 222 223 220 229 244 247 243 243 246 256 264 269 274 275 275 277 279 284 291 294 288 287 294 294 288 287 293 298 302 306 307 306 304 303 303 305 306 308 312 313 311 309 313 319 320 317 315 316 314 307 298 296 301 306 307 310 318 323 326 328 325 320 318 317 314 311 311 310 306 302 298 292 286 280 275 275 275 265 255
200 204 209 215 214 214 218 218 220 233 244 247 245 244 247 254 258 263 268 271 272 272 273 280 290 296 289 283 289 294 296 298 297 294 297 302 304 304 302 302 302 301 303 306 310 313 312 310 312 318 321 319 318 320 318 310 305 305 306 310 313 313 317 322 326 327 324 319 316 315 313 311 309 307 302 298 295 290 285 278 272 269 270 265 254
201 204 209 217 214 213 218 220 224 236 245 246 245 244 248 252 257 263 266 271 276 274 274 281 289 292 285 280 283 289 294 296 291 291 296 300 302 303 304 305 305 303 304 306 307 310 312 313 315 318 318 315 315 318 317 314 312 310 309 312 315 314 317 323 330 332 328 322 316 314 314 312 308 303 298 294 290 285 280 273 266 263 264 263 254
203 207 212 215 213 214 223 227 229 238 248 248 244 245 248 251 258 264 265 267 272 273 275 279 285 286 279 275 281 288 290 287 287 293 299 303 304 305 308 311 311 310 308 304 303 306 309 314 323 325 319 312 309 311 314 316 316 316 314 313 314 316 319 326 335 336 333 327 321 317 318 316 310 303 298 291 283 277 272 267 261 257 257 260 260
203 208 212 212 212 217 226 230 233 241 249 248 243 243 246 250 257 262 263 264 268 274 278 278 279 278 275 275 283 287 284 285 293 300 303 308 311 310 312 314 313 313 311 305 302 305 309 316 326 329 325 320 316 314 316 319 320 318 314 312 315 318 322 331 340 339 334 331 328 325 323 321 315 307 299 290 281 274 268 262 256 252 251 253 258
203 206 208 210 214 221 228 231 234 242 247 244 240 241 244 248 255 261 264 265 268 277 284 284 282 278 275 278 284 285 286 294 303 305 308 315 318 314 312 311 310 313 314 309 305 307 312 318 320 320 323 325 322 318 318 320 321 316 312 314 317 319 326 337 343 340 335 332 331 331 330 329 323 313 302 289 275 267 263 259 253 248 246 247 249
203 205 207 210 217 225 230 230 233 240 243 238 237 241 244 247 252 261 267 265 269 283 292 293 288 280 275 275 278 282 290 296 299 302 306 310 309 307 306 305 307 311 311 309 309 308 311 316 314 310 314 318 318 318 318 319 320 316 311 314 318 322 333 341 342 341 338 334 334 336 338 338 332 323 313 291 268 255 249 247 243 237 236 240 242
204 205 206 212 222 228 228 229 233 238 239 236 237 242 246 247 249 258 265 264 269 284 290 287 281 276 271 271 278 285 284 283 282 277 276 284 292 301 306 305 306 309 309 310 310 308 310 315 308 301 308 314 316 318 319 319 318 314 308 312 319 326 336 342 342 342 341 340 341 344 345 345 341 335 327 298 266 252 242 236 232 227 226 230 235
207 206 206 213 224 227 226 230 234 237 238 238 240 244 247 247 250 259 265 266 271 278 280 279 276 273 271 277 287 287 280 279 284 277 273 282 290 299 306 308 307 307 308 310 309 310 314 312 298 294 303 311 315 317 319 318 315 310 304 309 319 328 336 341 344 346 347 348 350 349 349 351 350 345 339 312 268 252 241 234 228 223 220 221 227
215 212 209 213 221 226 228 233 236 238 241 244 244 245 245 244 251 263 268 269 273 272 269 270 271 273 280 288 289 280 274 280 285 279 278 285 287 290 297 303 308 308 308 309 310 313 315 308 298 296 300 306 313 317 317 315 312 308 304 306 315 325 333 339 344 349 351 354 355 353 351 353 354 352 349 338 297 262 242 231 225 220 215 214 219
214 208 207 212 223 229 233 239 240 240 245 247 244 241 237 235 243 257 260 261 269 269 269 277 282 287 297 302 298 289 287 291 290 286 285 283 279 283 290 299 309 311 309 309 310 312 313 307 301 299 299 306 315 317 315 313 311 311 309 308 311 319 328 337 346 351 354 357 359 356 353 354 356 356 356 356 346 308 260 234 225 219 213 210 213
201 200 204 214 228 235 242 246 243 240 243 243 236 228 225 231 240 245 249 260 276 288 294 297 299 300 302 303 303 303 303 304 299 294 286 275 272 282 291 299 309 309 308 309 309 309 309 301 295 298 303 311 315 312 311 311 312 314 314 311 312 316 325 337 347 353 356 0 2 359 356 355 357 358 359 0 0 331 279 244 229 222 215 210 210
199 203 211 223 233 239 244 243 239 238 239 236 227 221 226 241 246 245 254 269 281 291 295 295 296 297 296 295 297 301 303 303 297 286 275 273 278 286 294 304 309 309 309 310 309 307 302 292 290 298 306 311 310 307 307 310 313 316 316 315 315 313 318 333 347 355 360 3 4 1 359 358 358 360 2 4 3 339 283 248 231 225 220 214 211
203 205 209 217 228 237 242 241 237 234 234 235 232 231 237 250 255 255 263 275 285 291 291 290 291 290 288 288 290 295 296 290 280 271 271 277 281 284 296 308 312 312 310 308 305 301 297 296 298 303 307 308 307 307 309 309 313 316 317 320 321 315 317 332 345 355 3 6 6 5 3 1 0 3 7 9 8 350 280 252 233 225 221 216 211
189 190 197 210 238 258 258 248 240 237 241 246 246 242 244 256 269 272 270 273 280 282 281 285 287 285 285 288 291 295 291 277 269 271 277 278 276 282 302 313 312 310 308 306 304 300 299 301 301 301 304 305 307 312 314 312 314 316 318 327 332 325 323 330 339 352 2 7 9 9 8 6 6 8 13 16 18 23 215 224 227 227 223 218 213
179 187 220 259 278 282 274 260 253 251 251 250 249 250 254 263 271 269 262 261 267 270 274 281 285 287 290 293 295 295 288 276 273 275 275 272 273 289 307 312 309 307 309 309 307 302 298 295 292 293 301 307 309 315 318 316 316 318 320 331 338 336 332 327 325 336 352 2 9 12 11 10 11 14 18 22 25 30 47 179 202 211 217 217 217
194 229 268 278 278 272 268 268 265 257 250 246 249 257 262 260 257 256 256 259 263 269 279 287 290 292 294 294 294 291 282 278 278 275 271 272 285 299 307 307 306 308 311 310 306 302 295 286 286 294 303 305 309 316 322 322 322 326 331 335 340 345 347 339 332 332 339 349 3 14 14 13 15 19 22 24 25 27 34 51 171 200 208 214 218
295 295 279 266 263 264 268 269 260 249 247 248 250 252 256 259 259 255 256 261 267 277 286 290 290 289 288 288 286 280 274 274 275 273 275 283 293 300 303 304 306 309 312 309 303 297 283 278 288 299 299 301 310 321 331 336 337 344 350 347 347 353 356 355 353 349 343 342 358 14 18 17 18 21 22 25 26 27 32 38 45 94 193 209 216
291 288 273 266 267 267 264 257 248 247 252 254 255 255 256 260 264 266 269 274 280 286 290 290 288 286 285 283 277 268 267 271 272 272 278 284 290 295 299 301 307 312 311 302 293 282 274 280 294 304 302 308 325 335 348 4 9 8 7 1 360 0 359 360 1 360 357 357 3 12 17 20 22 22 21 24 27 27 30 34 38 46 76 164 195
282 285 273 266 261 254 249 248 250 255 257 255 253 250 251 259 268 274 277 279 282 285 287 288 287 286 285 279 270 263 265 268 267 270 276 278 281 290 296 301 311 321 318 295 277 275 282 291 311 322 323 334 352 0 14 22 18 13 9 4 1 360 358 359 2 1 3 7 6 8 13 18 23 24 22 20 23 26 29 32 34 37 45 56 70
292 269 238 236 239 244 248 246 240 238 240 243 247 252 260 268 272 272 273 275 278 282 286 286 285 286 284 275 265 261 259 260 263 266 269 269 275 289 298 305 319 330 323 284 267 277 290 307 330 334 334 351 9 7 6 4 356 353 353 352 354 355 353 355 359 359 2 5 5 8 14 14 18 28 28 22 20 23 25 28 31 33 36 40 45
304 222 216 221 232 243 241 224 211 211 225 244 256 263 265 264 264 266 269 273 276 280 284 283 281 281 280 271 262 257 254 255 260 261 260 265 278 291 300 308 320 329 317 289 280 284 299 324 337 332 334 348 354 345 340 340 338 338 337 339 346 352 353 357 1 0 2 4 5 9 16 15 15 25 32 27 22 20 19 23 27 29 31 34 37
260 216 217 222 231 234 223 212 212 219 233 247 254 257 256 255 260 266 269 271 275 279 282 279 275 275 275 262 248 241 236 236 241 247 262 289 289 288 299 308 313 316 319 311 297 291 304 323 323 316 317 321 322 322 325 329 332 334 338 342 347 353 358 0 2 2 3 6 6 7 13 16 16 20 27 29 26 22 18 20 22 24 28 32 34
229 215 212 220 232 233 228 230 235 243 252 253 250 251 254 257 261 264 266 269 273 277 278 270 260 259 257 240 217 198 182 176 232 324 352 356 311 200 236 287 300 312 329 337 322 307 310 315 310 307 310 315 321 325 329 339 345 346 351 353 352 355 359 359 360 1 2 6 8 8 11 16 18 19 23 26 26 25 23 21 20 21 25 29 31
231 212 209 217 228 232 235 242 246 252 258 255 247 245 250 255 260 261 262 265 268 272 273 265 256 255 255 247 227 202 181 25 4 358 1 5 344 194 208 238 269 298 320 335 336 328 320 313 310 316 320 323 335 342 344 352 358 357 359 1 357 356 357 358 360 360 359 2 7 9 11 15 19 20 23 24 24 24 26 25 21 21 23 25 28
231 214 214 222 231 235 239 242 244 247 245 237 233 236 245 258 265 263 262 266 270 270 269 268 271 277 276 274 268 238 183 22 5 353 360 17 145 206 235 248 261 283 297 308 340 316 291 294 312 332 335 335 345 353 352 352 353 352 355 358 356 352 352 353 356 356 356 358 2 6 9 14 18 18 21 24 24 23 26 26 23 24 26 26 28
225 223 225 229 235 238 241 244 246 245 236 232 236 243 250 257 260 258 260 270 274 270 268 272 276 276 273 271 264 247 243 19 6 341 341 351 355 219 245 257 268 276 242 201 190 215 241 258 304 321 331 343 349 351 348 343 341 342 345 345 343 342 342 343 345 348 351 353 356 1 6 12 18 18 18 24 27 24 24 26 26 27 30 29 31
228 233 236 240 245 248 250 250 247 242 242 246 251 251 249 250 251 252 257 264 264 262 264 264 261 262 267 273 280 289 296 297 254 271 309 320 316 289 268 257 246 209 197 201 217 244 262 274 288 296 304 320 331 336 339 340 339 340 340 337 334 332 332 333 335 338 344 349 354 1 7 13 19 18 17 24 31 30 26 25 25 28 32 33 36
238 241 245 250 254 255 254 253 251 251 255 256 250 244 244 245 245 246 248 249 249 247 239 229 232 245 259 271 289 302 298 272 220 220 235 241 257 270 274 268 215 202 207 227 243 250 260 263 266 277 292 312 322 326 333 336 336 336 335 331 330 330 331 336 341 342 346 352 357 4 13 18 21 21 19 23 31 34 33 29 28 29 33 34 36
249 255 256 256 257 258 256 256 258 260 258 248 239 239 240 234 228 228 234 237 228 211 207 216 227 243 259 270 286 300 285 231 205 219 223 216 224 243 260 283 257 231 234 252 252 247 259 268 270 282 303 322 325 323 328 333 333 334 335 333 338 346 352 2 9 3 358 2 7 13 21 24 23 22 23 25 29 33 35 34 33 33 35 36 37
260 263 262 260 262 263 260 256 255 254 248 239 236 235 233 230 229 229 233 234 219 207 217 233 244 255 265 272 282 291 265 226 218 225 226 226 236 248 258 276 268 251 263 282 275 259 252 269 287 297 309 320 320 318 324 332 336 342 351 356 6 13 17 27 30 19 8 13 21 28 34 33 27 24 27 30 30 32 35 36 35 34 35 38 43
262 257 255 256 258 258 258 255 250 244 239 234 231 230 233 242 245 234 224 221 217 221 237 249 253 259 267 271 278 289 275 243 230 227 229 235 245 250 251 306 323 278 269 280 279 262 245 261 289 299 304 310 313 316 326 340 352 5 15 23 31 31 32 40 40 29 20 29 37 40 45 42 34 30 34 37 36 36 37 37 36 34 33 35 42
263 253 246 245 246 249 251 249 244 240 236 231 231 234 240 250 251 237 225 221 219 223 238 249 255 262 270 274 282 298 290 251 234 229 230 232 230 214 165 37 5 312 272 281 311 295 267 268 285 295 301 307 315 327 346 1 13 27 32 37 41 39 37 44 46 37 31 40 45 48 51 49 39 33 36 41 43 43 42 41 39 36 35 36 39
260 251 247 249 247 245 243 242 244 243 235 231 236 241 242 245 245 238 233 229 223 221 232 248 258 267 273 278 291 307 301 262 241 232 225 212 190 167 143 12 3 303 272 295 323 318 288 270 278 291 300 308 327 6 29 24 28 41 43 42 43 41 37 40 44 39 36 40 44 46 51 52 44 35 35 41 45 45 44 42 41 40 40 40 40
252 253 258 262 255 246 243 246 251 249 242 240 243 242 243 247 244 235 233 233 226 223 234 251 263 269 276 286 300 314 312 280 242 223 218 203 182 167 189 263 227 230 252 277 302 310 296 274 275 293 301 310 349 35 46 35 32 42 43 37 39 39 35 33 34 33 32 35 37 38 45 50 46 38 34 38 44 47 46 43 42 42 42 43 43
254 257 263 262 255 250 250 254 255 253 254 257 251 243 247 252 242 228 226 225 220 224 239 252 260 267 277 291 307 320 327 323 139 115 76 127 159 160 188 245 228 230 253 275 291 299 291 260 259 284 298 325 8 34 42 32 26 31 32 27 25 26 27 26 25 23 24 28 28 27 34 44 46 40 35 34 40 47 49 47 45 44 44 45 46
264 277 283 281 273 264 262 267 268 262 261 264 254 245 250 254 239 225 219 214 214 225 235 242 251 263 274 287 299 304 353 60 120 125 76 76 146 177 225 248 238 243 263 277 284 288 284 256 254 267 268 323 13 23 24 21 19 16 16 17 15 12 16 19 17 12 15 19 19 17 21 33 41 41 36 31 32 40 46 48 47 46 46 47 48
252 282 280 281 285 280 275 278 278 269 262 258 250 244 246 246 240 236 234 231 232 236 237 238 246 255 260 266 273 256 206 323 99 177 225 240 220 219 231 239 247 262 274 276 271 268 265 267 278 274 277 309 39 47 4 2 7 1 360 5 3 357 1 10 10 5 4 8 11 9 12 22 32 37 33 27 26 32 39 46 50 49 49 50 51
220 263 263 261 269 274 275 276 275 273 271 267 259 252 248 244 242 245 250 252 251 248 244 243 247 252 254 255 253 233 217 223 213 207 230 236 231 227 231 240 255 271 277 276 273 271 266 264 276 287 297 323 31 50 2 350 350 345 343 348 349 346 350 358 359 355 353 357 1 0 2 12 25 31 29 24 26 30 32 38 47 53 52 52 53
228 235 259 267 266 266 269 269 267 271 275 274 267 259 253 249 249 252 255 256 255 251 243 235 237 248 259 257 240 217 211 214 208 206 221 232 234 239 247 254 257 257 257 263 276 291 295 299 305 304 307 321 349 10 4 352 343 336 333 335 334 334 339 344 346 345 344 347 351 353 359 10 20 23 21 21 27 33 28 26 38 53 55 52 54
243 238 264 282 275 268 266 260 256 262 270 270 266 262 258 255 257 259 256 248 240 234 229 226 232 246 257 254 227 205 206 211 207 208 223 237 244 251 260 266 252 229 230 244 263 272 277 294 300 299 302 316 336 350 352 346 339 334 330 325 322 324 328 330 330 330 332 338 345 349 356 9 15 14 11 14 23 34 33 26 34 54 58 52 53
Height
1536 1538 1540 1540 1540 1540 1541 1543 1543 1544 1544 1544 1544 1544 1544 1544 1544 1544 1545 1546 1546 1545 1545 1545 1544 1543 1543 1543 1543 1543 1543 1544 1544 1544 1544 1543 1542 1542 1541 1541 1540 1540 1539 1538 1537 1536 1535 1534 1533 1533 1532 1531 1530 1528 1527 1526 1524 1522 1521 1518 1517 1515 1512 1510 1506 1499 1496 1496 1492 1488 1487 1485 1482 1482 1481 1479 1478 1479 1479 1478 1478 1478 1478 1479 1480
1534 1536 1538 1539 1538 1538 1540 1541 1542 1542 1542 1542 1543 1543 1543 1543 1543 1543 1543 1544 1544 1544 1543 1543 1542 1541 1541 1540 1541 1541 1541 1541 1542 1542 1541 1541 1541 1540 1540 1539 1539 1538 1537 1536 1535 1534 1533 1532 1531 1530 1529 1528 1527 1526 1525 1523 1521 1519 1518 1516 1514 1513 1511 1508 1504 1498 1492 1491 1489 1484 1483 1481 1477 1476 1477 1475 1474 1474 1474 1474 1474 1474 1474 1474 1475
1531 1534 1536 1537 1536 1537 1539 1540 1541 1541 1541 1541 1541 1541 1541 1542 1542 1542 1542 1542 1542 1542 1542 1541 1540 1540 1539 1539 1539 1539 1539 1539 1539 1539 1539 1539 1538 1538 1538 1537 1536 1535 1534 1533 1533 1532 1530 1529 1529 1528 1527 1526 1525 1524 1523 1521 1519 1517 1515 1514 1512 1510 1508 1506 1502 1497 1491 1487 1485 1481 1478 1477 1474 1471 1471 1470 1470 1470 1469 1469 1469 1469 1470 1470 1470
1529 1531 1534 1535 1534 1535 1538 1539 1540 1539 1539 1539 1539 1539 1540 1540 1540 1540 1540 1540 1540 1540 1540 1540 1540 1539 1538 1537 1537 1537 1537 1537 1537 1537 1536 1536 1536 1536 1535 1534 1533 1532 1532 1531 1530 1529 1528 1527 1526 1525 1524 1523 1522 1521 1521 1519 1517 1515 1513 1511 1510 1507 1505 1503 1500 1497 1491 1485 1482 1479 1475 1473 1470 1468 1466 1465 1465 1465 1465 1465 1465 1465 1465 1465 1465
1526 1529 1532 1533 1532 1534 1537 1538 1538 1537 1537 1537 1537 1538 1538 1538 1539 1538 1537 1537 1538 1538 1539 1539 1538 1537 1536 1536 1535 1535 1535 1535 1535 1534 1534 1533 1533 1533 1531 1530 1529 1529 1529 1528 1527 1527 1526 1524 1523 1522 1521 1520 1519 1518 1517 1516 1514 1512 1510 1508 1507 1504 1502 1500 1498 1495 1490 1484 1479 1476 1473 1470 1467 1464 1463 1462 1460 1460 1460 1460 1460 1460 1460 1460 1460
1524 1527 1530 1530 1530 1533 1535 1536 1536 1536 1535 1535 1535 1536 1536 1537 1537 1536 1535 1535 1536 1537 1538 1538 1537 1535 1534 1534 1534 1534 1533 1533 1532 1532 1531 1530 1530 1530 1528 1527 1526 1526 1526 1525 1525 1524 1523 1522 1521 1519 1518 1517 1516 1515 1513 1513 1512 1510 1507 1505 1503 1501 1499 1497 1495 1492 1488 1483 1478 1473 1469 1467 1463 1460 1460 1460 1458 1456 1455 1455 1455 1456 1456 1455 1455
1521 1525 1527 1527 1528 1530 1532 1534 1534 1534 1534 1534 1534 1535 1535 1536 1536 1535 1534 1534 1535 1536 1536 1536 1535 1533 1533 1532 1532 1532 1531 1531 1530 1529 1529 1528 1528 1527 1526 1525 1524 1523 1523 1522 1522 1521 1520 1519 1518 1517 1516 1514 1512 1511 1509 1509 1509 1507 1504 1502 1500 1498 1495 1493 1491 1489 1485 1481 1477 1472 1467 1464 1461 1458 1456 1456 1454 1452 1452 1451 1450 1450 1450 1450 1450
1518 1522 1523 1524 1526 1528 1530 1532 1532 1532 1532 1532 1533 1533 1534 1534 1534 1533 1533 1533 1534 1534 1534 1533 1532 1532 1531 1531 1530 1530 1529 1529 1528 1528 1527 1527 1526 1525 1524 1523 1522 1521 1521 1520 1519 1518 1517 1516 1515 1514 1513 1511 1509 1507 1506 1506 1505 1503 1501 1500 1497 1495 1493 1490 1488 1486 1482 1478 1474 1470 1465 1461 1458 1455 1453 1451 1450 1448 1448 1448 1446 1445 1445 1445 1445
1516 1519 1521 1522 1524 1526 1528 1529 1530 1531 1531 1531 1531 1532 1532 1532 1531 1531 1531 1531 1532 1531 1531 1531 1530 1530 1530 1529 1529 1528 1527 1527 1527 1526 1526 1525 1524 1523 1522 1521 1520 1519 1518 1517 1516 1516 1515 1514 1513 1511 1510 1508 1506 1505 1503 1503 1502 1500 1499 1497 1495 1493 1490 1488 1485 1483 1479 1475 1471 1467 1463 1458 1455 1452 1449 1448 1446 1445 1444 1444 1442 1441 1441 1441 1440
1513 1516 1518 1520 1522 1524 1526 1527 1528 1529 1529 1529 1529 1530 1530 1530 1529 1529 1529 1529 1529 1529 1529 1529 1528 1528 1527 1528 1528 1527 1526 1526 1525 1525 1524 1523 1522 1521 1520 1519 1517 1516 1515 1514 1514 1513 1513 1512 1510 1509 1507 1505 1503 1501 1500 1499 1499 1498 1497 1494 1492 1490 1488 1485 1483 1480 1476 1472 1468 1464 1460 1455 1452 1449 1446 1444 1443 1441 1440 1439 1438 1437 1438 1436 1435
1510 1513 1515 1518 1521 1523 1524 1525 1526 1527 1527 1526 1527 1527 1528 1527 1527 1527 1526 1526 1526 1526 1526 1526 1525 1525 1525 1525 1526 1526 1525 1525 1524 1523 1523 1522 1521 1519 1518 1516 1515 1514 1513 1512 1512 1511 1510 1509 1508 1506 1505 1502 1500 1498 1497 1497 1496 1496 1494 1492 1490 1488 1486 1483 1480 1477 1474 1469 1465 1461 1457 1451 1448 1445 1442 1440 1438 1437 1435 1435 1434 1433 1433 1432 1431
1507 1510 1513 1516 1519 1521 1523 1524 1524 1524 1524 1524 1524 1524 1525 1525 1525 1525 1524 1524 1524 1524 1524 1523 1522 1523 1523 1523 1524 1524 1523 1523 1522 1522 1521 1520 1519 1517 1516 1514 1512 1511 1511 1510 1509 1508 1507 1507 1505 1504 1502 1500 1498 1497 1495 1495 1494 1492 1491 1489 1487 1486 1484 1482 1478 1475 1471 1465 1461 1457 1453 1447 1443 1441 1438 1435 1433 1431 1430 1430 1429 1428 1428 1428 1426
1504 1508 1511 1514 1517 1519 1521 1521 1521 1521 1521 1522 1522 1522 1523 1523 1523 1523 1523 1523 1523 1522 1522 1521 1521 1521 1521 1521 1521 1521 1521 1521 1520 1520 1519 1518 1517 1516 1514 1513 1510 1509 1508 1507 1506 1506 1505 1504 1503 1501 1500 1498 1496 1495 1493 1492 1491 1489 1488 1486 1485 1483 1482 1480 1476 1472 1468 1463 1457 1452 1448 1444 1438 1435 1433 1431 1429 1426 1425 1425 1424 1423 1423 1422 1421
1501 1505 1508 1512 1514 1516 1518 1518 1519 1519 1519 1520 1520 1521 1521 1521 1521 1521 1521 1521 1521 1521 1520 1520 1519 1519 1519 1519 1519 1519 1519 1519 1518 1518 1517 1516 1515 1514 1513 1511 1508 1506 1505 1504 1504 1503 1503 1502 1501 1499 1498 1496 1495 1493 1491 1490 1489 1487 1485 1484 1482 1481 1479 1476 1472 1468 1464 1460 1454 1447 1443 1439 1433 1428 1426 1425 1423 1420 1418 1418 1419 1419 1419 1418 1418
1499 1502 1506 1509 1511 1514 1515 1515 1516 1516 1516 1517 1518 1518 1519 1519 1519 1519 1519 1519 1519 1518 1518 1518 1517 1517 1517 1517 1517 1517 1517 1517 1516 1516 1515 1514 1513 1512 1511 1509 1507 1505 1503 1503 1502 1502 1501 1500 1499 1498 1496 1495 1494 1492 1490 1488 1487 1485 1483 1481 1480 1478 1475 1472 1468 1464 1460 1455 1449 1443 1437 1432 1427 1421 1418 1416 1414 1412 1411 1412 1413 1414 1414 1414 1413
1496 1499 1503 1505 1508 1510 1511 1512 1512 1513 1513 1514 1514 1515 1515 1516 1517 1517 1517 1517 1517 1516 1516 1516 1515 1515 1516 1516 1516 1516 1515 1515 1515 1514 1513 1512 1510 1509 1508 1507 1505 1503 1502 1501 1501 1500 1499 1498 1497 1496 1494 1493 1491 1490 1488 1487 1485 1483 1480 1478 1476 1474 1470 1467 1464 1460 1456 1450 1444 1437 1430 1424 1419 1413 1409 1406 1404 1403 1404 1405 1406 1408 1409 1409 1408
1493 1497 1500 1502 1504 1506 1507 1508 1509 1510 1510 1511 1511 1512 1512 1513 1514 1515 1514 1515 1515 1514 1514 1514 1514 1514 1514 1514 1514 1513 1513 1512 1511 1511 1510 1509 1507 1506 1505 1503 1502 1501 1500 1499 1499 1498 1497 1496 1495 1493 1492 1490 1489 1487 1486 1484 1482 1480 1477 1475 1473 1469 1466 1463 1460 1456 1451 1445 1438 1431 1424 1418 1411 1404 1399 1395 1392 1394 1396 1396 1397 1400 1403 1403 1402
1491 1494 1497 1499 1501 1502 1503 1505 1506 1506 1507 1507 1507 1508 1509 1510 1511 1511 1512 1512 1512 1512 1512 1512 1512 1512 1512 1511 1510 1510 1510 1509 1508 1507 1506 1505 1504 1503 1502 1500 1499 1498 1498 1497 1496 1495 1495 1494 1492 1491 1489 1487 1486 1484 1483 1481 1479 1477 1474 1472 1469 1465 1462 1459 1455 1450 1445 1438 1432 1425 1418 1412 1405 1396 1390 1385 1382 1383 1384 1384 1387 1392 1395 1396 1397
1487 1491 1494 1496 1498 1499 1500 1501 1502 1503 1503 1503 1504 1505 1506 1507 1508 1508 1509 1509 1509 1510 1510 1510 1510 1510 1509 1508 1507 1507 1506 1506 1505 1504 1503 1502 1501 1500 1499 1497 1496 1496 1495 1494 1493 1493 1492 1491 1490 1489 1487 1485 1484 1482 1480 1479 1477 1474 1472 1469 1466 1462 1459 1456 1452 1446 1439 1432 1426 1419 1412 1405 1398 1390 1383 1377 1374 1374 1374 1375 1380 1385 1387 1390 1394
1486 1489 1492 1493 1495 1496 1497 1498 1499 1499 1500 1501 1502 1503 1504 1505 1506 1506 1507 1507 1508 1508 1508 1508 1508 1507 1506 1505 1505 1504 1504 1504 1503 1502 1501 1500 1499 1498 1497 1495 1494 1493 1492 1491 1490 1489 1489 1488 1487 1486 1485 1483 1482 1480 1478 1476 1474 1472 1470 1467 1463 1460 1457 1454 1450 1445 1438 1431 1423 1416 1408 1401 1395 1387 1379 1373 1370 1368 1369 1370 1373 1377 1381 1385 1389
1485 1488 1490 1491 1493 1494 1494 1495 1496 1497 1498 1499 1500 1502 1503 1503 1503 1503 1504 1506 1507 1507 1506 1505 1505 1504 1503 1502 1502 1502 1501 1501 1500 1500 1498 1497 1496 1495 1495 1493 1492 1491 1490 1488 1487 1486 1486 1485 1485 1484 1482 1481 1480 1478 1476 1474 1472 1470 1467 1464 1462 1459 1456 1453 1448 1443 1438 1431 1423 1415 1407 1399 1393 1385 1377 1371 1367 1366 1366 1367 1369 1372 1376 1380 1384
1483 1486 1488 1490 1491 1492 1492 1493 1494 1495 1497 1498 1499 1500 1500 1500 1500 1500 1501 1503 1505 1504 1503 1502 1502 1501 1500 1499 1499 1498 1498 1497 1497 1496 1495 1494 1493 1493 1492 1492 1491 1489 1487 1486 1485 1484 1483 1483 1482 1481 1480 1479 1477 1475 1474 1472 1469 1467 1465 1462 1460 1458 1455 1452 1447 1442 1437 1431 1422 1414 1407 1399 1392 1384 1376 1370 1366 1365 1364 1364 1366 1369 1373 1376 1380
1482 1484 1487 1489 1489 1490 1491 1492 1493 1494 1495 1496 1497 1497 1498 1498 1497 1497 1499 1502 1502 1501 1499 1499 1499 1499 1498 1497 1496 1496 1495 1494 1494 1493 1492 1492 1491 1491 1490 1489 1488 1487 1485 1484 1483 1481 1481 1480 1479 1479 1478 1476 1475 1473 1471 1470 1467 1465 1463 1460 1458 1456 1453 1450 1446 1441 1436 1430 1423 1415 1408 1401 1393 1386 1378 1370 1366 1364 1362 1362 1364 1368 1371 1375 1378
1482 1484 1487 1488 1488 1489 1490 1491 1492 1493 1494 1495 1495 1495 1495 1495 1494 1495 1498 1499 1498 1497 1497 1497 1497 1497 1496 1495 1494 1494 1493 1492 1491 1490 1490 1489 1489 1488 1488 1487 1486 1485 1484 1482 1480 1479 1479 1478 1477 1477 1476 1474 1473 1471 1469 1468 1466 1463 1461 1458 1456 1453 1451 1448 1444 1440 1435 1430 1423 1416 1409 1403 1395 1388 1380 1373 1367 1364 1363 1362 1363 1366 1369 1373 1377
1482 1484 1486 1486 1487 1488 1488 1489 1491 1491 1491 1492 1492 1492 1493 1493 1493 1494 1496 1496 1495 1494 1494 1495 1494 1494 1493 1492 1492 1492 1491 1490 1489 1488 1487 1487 1486 1486 1486 1485 1484 1483 1481 1480 1479 1478 1477 1476 1476 1474 1473 1472 1471 1469 1468 1466 1463 1461 1459 1457 1454 1451 1449 1446 1443 1440 1435 1430 1425 1418 1411 1404 1397 1390 1383 1376 1369 1364 1363 1363 1365 1367 1369 1374 1377
1480 1482 1483 1484 1484 1485 1486 1487 1488 1488 1489 1489 1489 1489 1490 1490 1492 1492 1492 1492 1492 1492 1492 1492 1491 1490 1490 1489 1489 1488 1488 1487 1486 1486 1485 1485 1484 1484 1484 1483 1482 1481 1480 1478 1477 1476 1476 1475 1474 1472 1471 1470 1469 1468 1466 1464 1462 1460 1458 1455 1453 1450 1448 1445 1442 1439 1435 1431 1426 1420 1414 1407 1399 1393 1386 1378 1370 1365 1364 1364 1366 1368 1370 1373 1376
1478 1480 1481 1482 1482 1483 1484 1484 1485 1485 1485 1486 1486 1487 1487 1488 1489 1489 1489 1490 1490 1490 1490 1490 1489 1488 1487 1487 1486 1485 1484 1484 1484 1484 1483 1483 1482 1482 1482 1481 1480 1479 1478 1477 1476 1475 1474 1473 1472 1471 1470 1469 1467 1466 1464 1462 1460 1459 1457 1454 1452 1449 1447 1444 1442 1439 1435 1432 1427 1422 1416 1410 1402 1394 1387 1381 1375 1371 1367 1366 1366 1368 1369 1372 1374
1476 1478 1479 1480 1480 1481 1481 1482 1482 1482 1483 1483 1483 1484 1485 1486 1487 1487 1488 1488 1488 1488 1489 1488 1487 1486 1485 1484 1484 1483 1482 1482 1482 1482 1481 1481 1480 1480 1479 1479 1478 1477 1476 1475 1474 1474 1473 1471 1470 1469 1468 1467 1466 1464 1462 1461 1459 1457 1456 1453 1451 1448 1446 1444 1441 1438 1435 1432 1428 1423 1417 1412 1405 1398 1392 1386 1382 1378 1373 1370 1368 1367 1368 1370 1373
1474 1476 1477 1477 1478 1479 1480 1480 1480 1480 1481 1481 1482 1483 1483 1484 1485 1486 1486 1486 1486 1487 1486 1486 1485 1484 1483 1482 1481 1480 1480 1480 1479 1479 1479 1478 1477 1477 1477 1477 1476 1475 1475 1474 1472 1472 1471 1469 1468 1468 1467 1466 1464 1462 1461 1460 1458 1456 1454 1452 1450 1447 1445 1443 1440 1437 1434 1431 1427 1423 1418 1413 1408 1402 1397 1392 1388 1385 1380 1376 1373 1370 1368 1369 1371
1473 1474 1475 1475 1476 1477 1478 1479 1479 1479 1479 1479 1480 1481 1482 1483 1484 1484 1485 1485 1485 1484 1484 1483 1483 1482 1481 1480 1479 1478 1478 1477 1477 1477 1476 1475 1475 1475 1474 1474 1474 1473 1473 1472 1471 1470 1469 1468 1467 1466 1465 1464 1463 1461 1460 1459 1457 1455 1453 1451 1449 1446 1444 1442 1440 1438 1434 1431 1427 1424 1419 1415 1410 1406 1401 1397 1393 1390 1386 1382 1379 1376 1373 1371 1371
1472 1472 1473 1473 1474 1474 1475 1476 1476 1477 1477 1477 1478 1480 1481 1482 1482 1482 1483 1483 1482 1482 1481 1481 1480 1479 1478 1478 1477 1476 1476 1475 1474 1474 1474 1473 1473 1472 1472 1472 1472 1471 1471 1470 1469 1469 1468 1466 1465 1465 1464 1463 1462 1460 1459 1458 1456 1455 1453 1451 1448 1446 1444 1442 1439 1437 1434 1431 1428 1424 1420 1416 1413 1409 1406 1403 1399 1394 1390 1387 1384 1382 1379 1376 1374
1470 1470 1471 1471 1472 1472 1473 1474 1474 1474 1475 1476 1477 1478 1479 1479 1480 1480 1480 1480 1480 1479 1479 1478 1478 1477 1476 1476 1475 1474 1473 1473 1472 1472 1471 1471 1471 1470 1470 1470 1469 1469 1469 1468 1468 1468 1467 1466 1465 1464 1463 1462 1461 1460 1458 1457 1455 1454 1452 1450 1448 1446 1444 1441 1439 1437 1434 1431 1428 1425 1421 1418 1415 1412 1409 1407 1403 1399 1395 1391 1388 1385 1383 1380 1377
1467 1468 1468 1469 1470 1471 1471 1472 1472 1473 1473 1474 1475 1475 1476 1477 1478 1478 1478 1478 1478 1477 1477 1476 1476 1475 1474 1474 1473 1472 1471 1471 1471 1470 1470 1469 1469 1468 1468 1468 1467 1467 1467 1467 1467 1467 1466 1465 1464 1463 1462 1461 1460 1458 1457 1456 1454 1453 1451 1449 1448 1446 1444 1442 1440 1438 1435 1432 1430 1427 1423 1419 1416 1413 1411 1409 1406 1403 1399 1396 1393 1390 1387 1384 1381
1465 1466 1466 1467 1468 1469 1469 1470 1471 1471 1472 1472 1472 1473 1473 1474 1475 1475 1475 1475 1475 1475 1475 1474 1474 1473 1473 1472 1471 1470 1470 1470 1469 1469 1468 1467 1467 1467 1467 1466 1465 1465 1465 1465 1465 1465 1465 1464 1463 1462 1461 1460 1459 1457 1456 1455 1454 1453 1451 1449 1448 1446 1444 1443 1441 1439 1436 1434 1431 1428 1425 1421 1418 1415 1413 1410 1408 1406 1403 1400 1398 1395 1391 1389 1387
1463 1464 1465 1465 1466 1466 1467 1467 1468 1469 1470 1471 1471 1471 1471 1472 1472 1472 1473 1473 1473 1473 1472 1472 1472 1472 1471 1470 1470 1469 1469 1468 1467 1467 1466 1466 1465 1465 1465 1465 1464 1463 1463 1464 1464 1464 1464 1463 1462 1461 1460 1459 1458 1457 1456 1455 1454 1452 1451 1449 1448 1446 1444 1443 1441 1439 1437 1435 1432 1430 1427 1424 1421 1418 1415 1412 1410 1408 1405 1403 1402 1399 1396 1393 1391
1462 1463 1464 1464 1464 1464 1464 1465 1466 1467 1468 1469 1469 1469 1470 1470 1470 1470 1470 1470 1470 1470 1470 1470 1470 1470 1469 1469 1468 1467 1467 1466 1466 1465 1465 1465 1465 1464 1464 1463 1463 1462 1462 1462 1462 1462 1462 1462 1461 1461 1460 1459 1458 1457 1456 1455 1453 1452 1451 1449 1448 1446 1444 1442 1441 1439 1437 1435 1433 1431 1429 1426 1423 1420 1417 1414 1412 1410 1408 1407 1405 1403 1400 1398 1397
1461 1462 1462 1462 1462 1462 1463 1463 1464 1465 1466 1466 1467 1468 1468 1468 1468 1467 1467 1468 1467 1468 1468 1468 1468 1468 1467 1466 1466 1465 1465 1465 1465 1464 1464 1464 1463 1463 1463 1462 1462 1461 1461 1461 1461 1461 1461 1461 1461 1460 1459 1458 1457 1456 1455 1454 1453 1452 1450 1449 1447 1446 1444 1442 1441 1439 1437 1435 1434 1432 1430 1427 1425 1422 1420 1417 1414 1413 1411 1410 1408 1406 1404 1403 1401
1461 1461 1461 1461 1461 1461 1462 1462 1462 1463 1464 1464 1465 1465 1466 1466 1466 1465 1466 1466 1466 1466 1467 1466 1466 1465 1464 1464 1464 1464 1464 1464 1464 1463 1463 1462 1462 1462 1462 1461 1461 1460 1460 1460 1460 1460 1460 1460 1459 1459 1458 1458 1456 1455 1455 1454 1453 1451 1450 1448 1447 1445 1444 1442 1440 1439 1437 1436 1434 1432 1430 1429 1426 1424 1422 1420 1418 1416 1415 1413 1411 1409 1407 1406 1405
1460 1460 1460 1460 1460 1460 1461 1461 1461 1461 1462 1462 1463 1463 1464 1464 1464 1464 1464 1465 1465 1465 1465 1464 1464 1463 1463 1463 1463 1463 1463 1463 1462 1462 1462 1461 1461 1460 1460 1460 1460 1460 1459 1459 1459 1459 1459 1459 1458 1458 1457 1457 1456 1455 1454 1453 1452 1450 1449 1447 1446 1445 1443 1442 1440 1439 1437 1436 1434 1433 1431 1429 1428 1426 1424 1423 1421 1419 1418 1416 1414 1412 1410 1409 1408
1459 1459 1459 1459 1459 1459 1459 1459 1459 1459 1459 1460 1461 1461 1461 1462 1462 1462 1463 1463 1464 1464 1464 1463 1462 1462 1462 1463 1463 1463 1462 1462 1461 1461 1461 1460 1460 1459 1459 1459 1459 1458 1458 1458 1458 1458 1458 1457 1457 1456 1456 1455 1454 1454 1453 1452 1451 1449 1448 1447 1445 1444 1443 1442 1440 1439 1437 1436 1435 1433 1431 1430 1429 1428 1426 1425 1423 1422 1420 1419 1417 1415 1413 1412 1411
1457 1457 1457 1457 1457 1457 1457 1457 1458 1457 1458 1458 1459 1459 1459 1460 1461 1461 1462 1462 1463 1463 1462 1462 1462 1461 1461 1462 1462 1462 1462 1461 1461 1460 1460 1459 1459 1458 1459 1459 1458 1458 1457 1457 1457 1457 1457 1456 1456 1455 1455 1454 1453 1452 1452 1451 1450 1448 1447 1446 1445 1444 1443 1442 1440 1439 1438 1437 1435 1434 1432 1431 1430 1429 1427 1426 1425 1424 1422 1421 1419 1418 1416 1414 1413
1455 1455 1455 1455 1455 1455 1455 1455 1456 1456 1456 1456 1456 1457 1458 1458 1459 1460 1460 1461 1461 1461 1461 1460 1460 1460 1460 1460 1460 1460 1460 1460 1459 1459 1458 1458 1458 1458 1458 1458 1458 1457 1457 1457 1457 1456 1456 1455 1455 1454 1454 1453 1452 1451 1451 1450 1449 1448 1447 1446 1445 1444 1443 1442 1441 1440 1439 1438 1436 1435 1433 1432 1431 1430 1428 1427 1426 1425 1423 1422 1421 1419 1418 1416 1415
1452 1453 1453 1453 1453 1453 1453 1453 1454 1454 1455 1454 1455 1456 1456 1456 1457 1458 1458 1459 1459 1459 1458 1458 1458 1458 1458 1458 1458 1458 1458 1457 1457 1457 1457 1457 1457 1457 1457 1457 1457 1456 1456 1456 1456 1456 1455 1454 1454 1453 1452 1451 1451 1450 1450 1449 1449 1448 1447 1446 1445 1444 1443 1442 1441 1441 1440 1438 1437 1436 1434 1433 1432 1431 1429 1428 1427 1426 1424 1423 1422 1421 1420 1418 1417
1451 1451 1451 1452 1452 1452 1452 1452 1452 1452 1453 1453 1453 1454 1454 1455 1455 1456 1456 1457 1458 1457 1456 1456 1456 1456 1456 1456 1455 1455 1455 1455 1455 1455 1455 1455 1456 1456 1456 1456 1456 1455 1455 1455 1455 1455 1454 1453 1453 1452 1451 1451 1450 1450 1450 1449 1448 1448 1447 1446 1445 1444 1443 1442 1442 1441 1440 1439 1438 1437 1435 1433 1432 1432 1430 1429 1427 1426 1425 1424 1422 1422 1421 1420 1419
1450 1450 1450 1450 1451 1451 1451 1451 1451 1451 1451 1452 1452 1453 1453 1453 1453 1453 1454 1455 1456 1455 1455 1455 1454 1454 1454 1453 1453 1453 1453 1453 1453 1453 1453 1454 1454 1455 1455 1455 1455 1454 1454 1454 1454 1454 1453 1452 1452 1451 1451 1450 1450 1450 1450 1449 1448 1448 1447 1446 1445 1444 1443 1442 1442 1441 1440 1439 1439 1438 1436 1434 1433 1433 1432 1430 1429 1428 1426 1425 1424 1423 1422 1421 1420
1449 1449 1449 1449 1450 1450 1450 1450 1450 1451 1451 1451 1451 1451 1451 1451 1451 1452 1452 1453 1454 1454 1453 1453 1453 1452 1452 1451 1451 1452 1451 1451 1452 1452 1452 1453 1453 1453 1454 1454 1454 1454 1454 1453 1453 1453 1452 1451 1451 1450 1450 1450 1449 1450 1449 1449 1448 1448 1447 1446 1445 1444 1443 1443 1442 1441 1440 1440 1439 1438 1437 1435 1434 1434 1433 1432 1431 1429 1428 1427 1426 1424 1424 1423 1421
1449 1449 1449 1449 1449 1449 1450 1450 1450 1450 1450 1450 1450 1450 1450 1449 1450 1450 1451 1452 1452 1452 1452 1451 1451 1451 1450 1450 1450 1451 1451 1451 1451 1451 1451 1453 1453 1453 1453 1453 1453 1453 1453 1452 1452 1451 1451 1451 1450 1450 1449 1449 1449 1449 1449 1449 1448 1448 1447 1446 1445 1445 1444 1443 1442 1441 1441 1440 1439 1438 1438 1436 1435 1434 1434 1433 1432 1431 1430 1428 1427 1426 1425 1424 1423
1448 1449 1449 1448 1448 1449 1449 1449 1449 1448 1448 1448 1449 1449 1448 1448 1448 1449 1449 1450 1450 1451 1451 1450 1450 1450 1449 1448 1449 1449 1450 1450 1450 1450 1451 1452 1452 1452 1452 1452 1452 1452 1452 1451 1451 1450 1450 1450 1450 1449 1449 1449 1449 1449 1449 1448 1448 1448 1447 1446 1446 1445 1444 1443 1442 1442 1441 1440 1439 1439 1438 1437 1436 1435 1434 1433 1433 1432 1431 1430 1429 1428 1427 1426 1425
1448 1448 1449 1448 1447 1447 1447 1447 1447 1447 1447 1447 1447 1447 1447 1447 1447 1447 1448 1448 1448 1448 1449 1449 1449 1449 1448 1448 1448 1448 1448 1449 1450 1450 1450 1451 1451 1451 1451 1451 1451 1450 1450 1450 1450 1449 1449 1449 1449 1448 1448 1448 1449 1449 1448 1448 1448 1447 1447 1446 1446 1445 1444 1443 1443 1442 1441 1440 1440 1439 1438 1437 1436 1435 1434 1434 1433 1433 1432 1431 1430 1429 1429 1427 1426
1446 1447 1447 1447 1447 1446 1446 1445 1445 1445 1445 1446 1446 1445 1445 1445 1445 1445 1446 1446 1446 1446 1447 1447 1447 1447 1447 1447 1447 1447 1447 1448 1449 1449 1449 1449 1449 1450 1450 1450 1450 1449 1448 1448 1448 1448 1448 1448 1447 1446 1446 1447 1448 1448 1448 1447 1447 1446 1446 1445 1445 1445 1444 1443 1443 1442 1441 1441 1440 1439 1438 1437 1436 1436 1435 1434 1434 1433 1433 1432 1431 1430 1430 1429 1428
1445 1445 1445 1445 1445 1445 1445 1444 1443 1443 1443 1443 1444 1444 1444 1443 1443 1443 1443 1443 1443 1444 1444 1445 1445 1445 1445 1445 1445 1445 1446 1447 1448 1448 1448 1448 1448 1448 1448 1449 1449 1448 1448 1447 1447 1447 1447 1447 1446 1445 1445 1446 1447 1447 1447 1447 1446 1445 1445 1445 1444 1444 1444 1443 1442 1442 1441 1441 1440 1439 1438 1437 1436 1436 1435 1435 1434 1434 1433 1433 1432 1431 1431 1430 1429